Regional Weather Roundup
Issued by NWS

Home | Current Version | Previous Version | Graphics & Text | Print | Product List | Glossary On
Versions: 1 2 3 4 5 6 7 8 9 10 11 12 13 14 15 16 17 18 19 20 21 22 23 24 25 26 27 28 29 30 31 32 33 34 35 36 37 38 39 40 41 42 43 44 45 46 47 48 49 50
000
ASUS43 KLMK 271410
RWRKY
KENTUCKY REGIONAL WEATHER ROUNDUP
NATIONAL WEATHER SERVICE LOUISVILLE KY
1000 AM EDT THU APR 27 2017

NOTE "FAIR" INDICATES FEW OR NO CLOUDS BELOW 12,000 FEET
WITH NO SIGNIFICANT WEATHER AND/OR OBSTRUCTIONS TO VISIBILITY.

KYZ001>023-026-027-061>063-070>075-271500-
WESTERN AND SOUTH CENTRAL KENTUCKY

CITY           SKY/WX    TMP DP  RH WIND       PRES   REMARKS
PADUCAH        CLOUDY    52  45  77 W13       29.75R
HENDERSON      CLOUDY    53  47  79 W10       29.72R
OWENSBORO      CLOUDY    54  49  83 W14       29.71R
HOPKINSVILLE   CLOUDY    53  50  90 W13       29.75R
BOWLING GREEN  PTSUNNY   65  60  84 W20G25    29.69R
GLASGOW        CLOUDY    64  62  90 SW15      29.69R
$$

KYZ024-025-028>034-038-045-046-053-271500-
NORTH CENTRAL KENTUCKY

CITY           SKY/WX    TMP DP  RH WIND       PRES   REMARKS
LOUISVILLE/SDF PTSUNNY   66  60  81 SW15G24   29.62R
LOUISVILLE/LOU CLOUDY    66  61  84 SW10G20   29.63R
FORT KNOX      CLOUDY    64  59  82 SW14      29.63R
$$

KYZ035>037-039>044-047>052-055>060-089>105-271500-
NORTHEAST KENTUCKY

CITY           SKY/WX    TMP DP  RH WIND       PRES   REMARKS
LEXINGTON      CLOUDY    68  57  68 S25G33    29.65R
COVINGTON      CLOUDY    61  58  90 SW7       29.62S
FRANKFORT      LGT RAIN  68  58  70 S20G30    29.62R
$$

KYZ054-064>069-076>088-106>120-271500-
SOUTHEAST KENTUCKY

CITY           SKY/WX    TMP DP  RH WIND       PRES   REMARKS
JACKSON        LGT RAIN  63  57  81 VRB3      29.70R
LONDON         LGT RAIN  64  57  78 S13       29.71R
SOMERSET       CLOUDY    64  57  77 S8        29.72R
MIDDLESBORO    RAIN      62  59  88 CALM      29.75S
MONTICELLO     CLOUDY    67  60  78 SE10      29.71R
$$




USA.gov is the U.S. government's official web portal to all federal, state and local government web resources and services.